カタログに戻る

STARLINK-30787

運用中通信VLEO
NORAD 58128·PAYLOAD·🇺🇸 United States

打ち上げ Oct 22, 2023 から Cape Canaveral Space Force Station

Loading…

次のパス (今後24時間)

TLE

最新Source: CelesTrak SupGP

元期: Sep 15, 2026, 02:35 UTC

1 58128C 23162L   26258.10812500  .00017490  00000+0  63440-3 0  2586
2 58128  43.0008 139.5643 0001588 268.9827  92.5611 15.27522508    18

AllMySatでSTARLINK-30787をリアルタイム追跡

Download on the App Store